Location: St. Louis
(38.6270°N, 90.1994°W)
Time: 03:54:47
(UTC-05:00)

RS-15 - Pass Details

Date: 05 February 2022
Orbit: 1881 x 2163 km, 64.8° (Epoch: 20 May)

Event Time Altitude Azimuth Distance (km) Brightness Sun altitude
Rises 00:29:42 0° 328° (NNW) 5,672 10.7 -67.0°
Reaches altitude 10° 00:33:14 10° 332° (NNW) 4,680 10.1 -66.9°
Enters shadow 00:34:56 16° 334° (NNW) 4,219 9.9 -66.9°
